Regional Weather Roundup
Issued by NWS

Home | Current Version | Previous Version | Graphics & Text | Print | Product List | Glossary On
Versions: 1 2 3 4 5 6 7 8 9 10 11 12 13 14 15 16 17 18 19 20 21 22 23 24 25 26 27 28
000
ASUS45 KTFX 211810
RWRMT
MONTANA REGIONAL WEATHER ROUNDUP
NATIONAL WEATHER SERVICE GREAT FALLS MT
1100 AM MST TUE NOV 21 2017

NOTE: "FAIR" INDICATES FEW OR NO CLOUDS BELOW 12000 FEET WITH NO
SIGNIFICANT WEATHER AND/OR OBSTRUCTIONS TO VISIBILITY.

MTZ001>007-043-211900-
WEST OF THE DIVIDE

CITY           SKY/WX    TMP DP  RH WIND       PRES   REMARKS
KALISPELL      FAIR      41  37  86 CALM      30.22R
MISSOULA       FOG       32  31  96 NE3       30.27R VSB 1/4
BUTTE          FAIR      29  23  78 E3        30.25R
MULLAN PASS    PTSUNNY   30  27  88 S8        30.15S WCI  22
ANACONDA         N/A     37  27  65 SE14      30.21S WCI  29
DEER LODGE       N/A     32  27  80 CALM      30.25R
EUREKA           N/A     43  37  81 MISG      30.21R
HAMILTON         N/A     36  30  80 N5        30.24F
LIBBY            N/A     34  34 100 CALM      30.22S
PLAINS           N/A     34  31  89 MISG      30.23S VSB 0
RONAN            N/A     43  37  79 S3        30.24S
$$

MTZ008-052>055-211900-
SOUTHWEST MONTANA

CITY           SKY/WX    TMP DP  RH WIND       PRES   REMARKS
BOZEMAN        FAIR      31  28  89 CALM      30.24S
DILLON         FAIR      39  32  76 SW10      30.26R
W YELLOWSTONE  CLOUDY    32  32 100 SW8       30.32R WCI  25
ENNIS          CLOUDY    41  32  70 S17       30.31R
TWIN BRIDGES     N/A     39  30  70 CALM      30.23R
$$

MTZ009-010-012-014-046-048-049-054-211900-
EAST SLOPES AND CENTRAL MONTANA

CITY           SKY/WX    TMP DP  RH WIND       PRES   REMARKS
CUT BANK       CLOUDY    20  18  92 SE7       30.12R WCI  11
GREAT FALLS    FAIR      26  20  77 SE3       30.15R
HELENA         FAIR      35  30  82 N5        30.24R
CHOTEAU          N/A     30  25  80 S5        30.14S
RAYNESFORD     FAIR      31  25  76 CALM      30.14S
$$

MTZ011-013-016-021-045-047-050-051-211900-
NORTH CENTRAL MONTANA

CITY           SKY/WX    TMP DP  RH WIND       PRES   REMARKS
HAVRE          FAIR      22  11  62 E12       30.23F WCI  10
LEWISTOWN      FAIR      31  25  78 E7        30.16F WCI  24
N BAR RANCH    FAIR      30  23  74 CALM      30.20F
CHINOOK          N/A     19   7  58 E13       30.26F WCI   7
GEYSER         FAIR      29  24  81 CALM      30.14S
STANFORD       FAIR      29  25  82 CALM      30.13F
$$

MTZ017>020-022>027-061-062-211900-
NORTHEAST MONTANA

CITY           SKY/WX    TMP DP  RH WIND       PRES   REMARKS
GLASGOW        FAIR       9  -3  58 CALM      30.38S
GLENDIVE       FAIR      17   5  59 W8        30.39  WCI   7
JORDAN           N/A     19   6  57 SE5       30.33S
SIDNEY         FAIR      12   0  58 W5        30.42F
WOLF POINT     FAIR      11  -2  56 CALM      30.42S
MALTA          CLOUDY    14   3  62 E7        30.34F WCI   4
PLENTYWOOD       N/A      3  -2  78 NW8       30.39S WCI -10
POPLAR           N/A     10  -2  56 W7        30.42S WCI   0
SCOBEY           N/A      7 -10  45 CALM      30.31F
$$

MTZ028>42-056>058-211900-
SOUTHCENTRAL AND SOUTHEAST MONTANA

CITY           SKY/WX    TMP DP  RH WIND       PRES   REMARKS
BAKER          FAIR      16   5  62 W10       30.35R WCI   4
BILLINGS       FAIR      29  26  89 SW10      30.26F WCI  20
LIVINGSTON     FAIR      32  32 100 NW15      30.21S WCI  22
MILES CITY     FAIR      21   9  59 E5        30.35S
BIG TIMBER     CLOUDY    28  27  93 CALM      30.25R
EKALAKA          N/A     21   5  50 W7        30.25R WCI  12
FORSYTH          N/A     25  18  74 E6        30.33R WCI  18
LAUREL           N/A     30  27  86 SW6       30.27F WCI  24
$$

REGIONAL REPORTS...DAKOTAS

CITY           SKY/WX    TMP DP  RH WIND       PRES   REMARKS
WILLISTON      PTSUNNY    9  -1  64 W8        30.42R WCI  -3
MINOT          PTSUNNY   12   3  67 W13       30.34F WCI  -3
DICKINSON      FAIR      14   1  56 W16       30.31F WCI  -2
BEACH          FAIR      12  -2  52 W8        30.37F WCI   1
CROSBY         FAIR       7   0  72 W14       30.39R WCI -10
TIOGA          PTSUNNY    7   0  72 NW13      30.34F WCI  -9
WATFORD CITY   FAIR       9   0  66 W13       30.39F WCI  -7
BISMARCK       CLOUDY    20   7  57 W16       30.40S WCI   6
GRAND FORKS    FAIR      19  11  70 NW20G30   30.29R WCI   3
FARGO          FAIR      21   9  59 NW17G30   30.30R WCI   7
BUFFALO SD       N/A     22   6  50 W14       30.25F WCI   9
RAPID CITY     FAIR      29  19  66 N9        30.33S WCI  20
$$

REGIONAL REPORTS...WYOMING/IDAHO/WASHINGTON

CITY           SKY/WX    TMP DP  RH WIND       PRES   REMARKS
GILLETTE       PTSUNNY   31  22  69 SW12      30.29F WCI  22
SHERIDAN       FAIR      33  29  85 SE8       30.27F WCI  26
BUFFALO WY     FAIR      31  25  78 S17       30.26F WCI  19
CODY           FAIR      43  33  68 SE13      30.24F
YELLOWSTONE LA   N/A     34  27  75 CALM      30.33R
IDAHO FALLS    CLOUDY    37  36  96 N5        30.36R FOG
SALMON         CLOUDY    36  35  96 CALM      30.34S
BOISE          CLOUDY    53  46  77 SE10      30.27F
SPOKANE        LGT RAIN  35  35 100 E8        30.16F VSB 1   WCI  29
$$

REGIONAL REPORTS...ALBERTA

CITY           SKY/WX    TMP DP  RH WIND       PRES   REMARKS
EDMONTON       PTSUNNY    3  -6  66 S8        30.20F WCI -10
CALGARY        CLOUDY    12   7  79 SE12      30.07  HAZE    WCI  -2
LETHBRIDGE     PTSUNNY   19  14  79 NW6       30.11S WCI  11
MEDICINE HAT   MOSUNNY   14   5  67 E9        30.23F WCI   2
$$

REGIONAL REPORTS...SASKATCHEWAN

CITY           SKY/WX    TMP DP  RH WIND       PRES   REMARKS
SWIFT CURRENT  SUNNY      1  -6  71 SW8       30.27S WCI -12
REGINA         FLURRIES   3  -2  78 W12       30.38R WCI -13
SASKATOON      FLURRIES   5  -2  72 W10       30.37S WCI -10
$$




USA.gov is the U.S. government's official web portal to all federal, state and local government web resources and services.